Weather History for Perry, IA

Change the Weather History Date:

Wednesday, February 1, 2012

  Actual Average Record
Temperature  
Mean Temperature 40 °F -  
Max Temperature 57 °F 31 °F 59 °F (1989)
Min Temperature 24 °F 10 °F -18 °F (1979)
Degree Days  
Heating Degree Days 24    
Moisture  
Dew Point 31 °F    
Average Humidity 80    
Maximum Humidity 100    
Minimum Humidity 40    
Precipitation  
Precipitation 0.00 in - - ()
Sea Level Pressure  
Sea Level Pressure 30.09 in    
Wind  
Wind Speed 5 mph (WNW)    
Max Wind Speed 10 mph    
Max Gust Speed -    
Visibility 10 miles    
Events      
Averages and records for this station are not official NWS values.
T = Trace of Precipitation, MM = Missing Value Source: NWS Daily Summary

Daily Weather History Graph

Daily Weather History Graph

Search for Another Location

Airport:

Trip Planner

Search our weather history database for the weather conditions in past years. The results will help you decide how hot, cold, wet, or windy it might be!

Date:

Astronomy

Feb. 01, 2012 Rise Set
Actual Time 7:29 AM CST 5:31 PM CST
Civil Twilight 6:59 AM CST 6:00 PM CST
Nautical Twilight 6:26 AM CST 6:34 PM CST
Astronomical Twilight 5:53 AM CST 7:06 PM CST
Moon 11:58 AM CST (2/1) 2:17 AM CST (2/1)
Length of Visible Light 11h 00m
Length of Day
10h 01m
Waxing Gibbous, 65% of the Moon is Illuminated
Feb 1
Waxing Gibbous
Feb 7
Full
Feb 14
Last Quarter
Feb 21
New
Feb 29
First Quarter

Hourly Weather History & Observations

Time (CST) Temp. Windchill Dew Point Humidity Pressure Visibility Wind Dir Wind Speed Gust Speed Precip Events Conditions
12:15 AM 28.9 °F 21.9 °F 28.9 °F 100% 30.04 in 10.0 mi West 6.9 mph - N/A   Clear
12:35 AM 28.9 °F 21.1 °F 28.9 °F 100% 30.04 in 10.0 mi West 8.1 mph - N/A   Clear
12:55 AM 29.1 °F 21.3 °F 29.1 °F 100% 30.04 in 10.0 mi West 8.1 mph - N/A   Clear
1:15 AM 29.7 °F 21.3 °F 29.7 °F 100% 30.05 in 10.0 mi West 9.2 mph - N/A   Clear
1:35 AM 29.8 °F 22.2 °F 29.8 °F 100% 30.05 in 10.0 mi WNW 8.1 mph - N/A   Clear
1:55 AM 29.1 °F 21.3 °F 29.1 °F 100% 30.05 in 10.0 mi West 8.1 mph - N/A   Clear
2:15 AM 28.6 °F 20.7 °F 28.6 °F 100% 30.06 in 10.0 mi West 8.1 mph - N/A   Clear
2:35 AM 27.1 °F 19.7 °F 27.1 °F 100% 30.06 in 10.0 mi WSW 6.9 mph - N/A   Clear
2:55 AM 27.3 °F 19.1 °F 27.3 °F 100% 30.06 in 10.0 mi WSW 8.1 mph - N/A   Clear
3:15 AM 28.4 °F 20.4 °F 28.4 °F 100% 30.07 in 10.0 mi West 8.1 mph - N/A   Clear
3:35 AM 27.1 °F 18.9 °F 27.1 °F 100% 30.07 in 10.0 mi West 8.1 mph - N/A   Clear
3:55 AM 27.5 °F 20.2 °F 27.5 °F 100% 30.07 in 10.0 mi West 6.9 mph - N/A   Clear
4:15 AM 26.4 °F 18.9 °F 26.4 °F 100% 30.07 in 10.0 mi West 6.9 mph - N/A   Clear
4:35 AM 26.8 °F 19.3 °F 26.8 °F 100% 30.07 in 10.0 mi West 6.9 mph - N/A   Clear
4:55 AM 26.6 °F 18.2 °F 26.6 °F 100% 30.07 in 10.0 mi West 8.1 mph - N/A   Clear
5:15 AM 27.5 °F 19.3 °F 27.5 °F 100% 30.07 in 10.0 mi West 8.1 mph - N/A   Clear
5:35 AM 26.2 °F 22.1 °F 26.2 °F 100% 30.07 in 10.0 mi WNW 3.5 mph - N/A   Clear
6:15 AM 25.3 °F 21.1 °F 25.3 °F 100% 30.08 in 10.0 mi West 3.5 mph - N/A   Clear
6:35 AM 26.2 °F - 26.2 °F 100% 30.09 in 10.0 mi Calm Calm - N/A   Clear
6:55 AM 26.6 °F - 26.6 °F 100% 30.09 in 10.0 mi Calm Calm - N/A   Clear
7:15 AM 24.3 °F - 24.3 °F 100% 30.10 in 10.0 mi Calm Calm - N/A   Clear
7:35 AM 24.1 °F - 24.1 °F 100% 30.10 in 10.0 mi Calm Calm - N/A   Clear
7:55 AM 25.5 °F - 25.5 °F 100% 30.10 in 10.0 mi Calm Calm - N/A   Clear
8:15 AM 26.6 °F - 26.6 °F 100% 30.10 in 10.0 mi Calm Calm - N/A   Clear
8:35 AM 28.4 °F 24.6 °F 28.4 °F 100% 30.11 in 10.0 mi SSE 3.5 mph - N/A   Clear
8:55 AM 30.0 °F - 30.0 °F 100% 30.11 in 10.0 mi Calm Calm - N/A   Clear
9:15 AM 31.8 °F - 31.8 °F 100% 30.11 in 10.0 mi Calm Calm - N/A   Clear
9:35 AM 32.9 °F - 32.9 °F 100% 30.11 in 10.0 mi Calm Calm - N/A   Clear
9:55 AM 34.2 °F - 34.2 °F 100% 30.11 in 10.0 mi Calm Calm - N/A   Clear
10:15 AM 36.0 °F - 35.8 °F 99% 30.12 in 10.0 mi Calm Calm - N/A   Clear
10:35 AM 38.1 °F - 36.7 °F 95% 30.13 in 10.0 mi Calm Calm - N/A   Clear
10:55 AM 40.5 °F - 37.6 °F 89% 30.13 in 10.0 mi Calm Calm - N/A   Clear
11:15 AM 42.1 °F - 37.4 °F 83% 30.12 in 10.0 mi Calm Calm - N/A   Clear
11:35 AM 43.7 °F - 37.2 °F 78% 30.12 in 10.0 mi Calm Calm - N/A   Clear
11:55 AM 44.8 °F - 37.0 °F 74% 30.11 in 10.0 mi Calm Calm - N/A   Clear
12:15 PM 46.9 °F - 37.0 °F 68% 30.10 in 10.0 mi Calm Calm - N/A   Clear
12:35 PM 48.4 °F - 37.6 °F 66% 30.10 in 10.0 mi Calm Calm - N/A   Clear
12:55 PM 50.2 °F - 37.4 °F 62% 30.09 in 10.0 mi SSW 4.6 mph - N/A   Clear
1:15 PM 51.4 °F - 37.0 °F 58% 30.09 in 10.0 mi Calm Calm - N/A   Clear
1:35 PM 53.2 °F - 37.2 °F 55% 30.09 in 10.0 mi Calm Calm - N/A   Clear
1:55 PM 54.1 °F - 35.8 °F 50% 30.08 in 10.0 mi West 4.6 mph - N/A   Clear
2:15 PM 55.2 °F - 35.8 °F 48% 30.08 in 10.0 mi WSW 3.5 mph - N/A   Clear
2:35 PM 55.6 °F - 35.1 °F 46% 30.07 in 10.0 mi Calm Calm - N/A   Clear
2:55 PM 56.5 °F - 34.0 °F 43% 30.07 in 10.0 mi West 4.6 mph - N/A   Clear
3:15 PM 56.7 °F - 33.4 °F 42% 30.07 in 10.0 mi West 10.4 mph - N/A   Clear
3:35 PM 57.2 °F - 33.3 °F 40% 30.07 in 10.0 mi WNW 8.1 mph - N/A   Clear
3:55 PM 57.2 °F - 33.8 °F 41% 30.07 in 10.0 mi WNW 8.1 mph - N/A   Clear
4:15 PM 56.1 °F - 33.4 °F 42% 30.07 in 10.0 mi WNW 6.9 mph - N/A   Clear
4:35 PM 52.9 °F - 33.4 °F 48% 30.07 in 10.0 mi NW 5.8 mph - N/A   Clear
4:55 PM 50.2 °F - 32.7 °F 51% 30.07 in 10.0 mi WNW 4.6 mph - N/A   Clear
5:15 PM 48.9 °F - 32.4 °F 53% 30.08 in 10.0 mi WNW 4.6 mph - N/A   Clear
5:35 PM 48.6 °F - 31.6 °F 52% 30.08 in 10.0 mi NW 3.5 mph - N/A   Clear
5:55 PM 46.8 °F - 30.9 °F 54% 30.09 in 10.0 mi NNE 3.5 mph - N/A   Clear
6:15 PM 46.8 °F - 30.9 °F 54% 30.09 in 10.0 mi NNW 3.5 mph - N/A   Clear
6:35 PM 49.5 °F - 30.7 °F 49% 30.09 in 10.0 mi North 3.5 mph - N/A   Clear
6:55 PM 45.5 °F 44.2 °F 30.9 °F 57% 30.10 in 10.0 mi NW 3.5 mph - N/A   Clear
7:15 PM 39.0 °F 36.8 °F 29.8 °F 70% 30.10 in 10.0 mi NW 3.5 mph - N/A   Clear
7:35 PM 36.7 °F - 29.3 °F 75% 30.10 in 10.0 mi Calm Calm - N/A   Clear
7:55 PM 35.2 °F - 29.1 °F 78% 30.11 in 10.0 mi Calm Calm - N/A   Clear
8:15 PM 35.8 °F - 29.1 °F 77% 30.11 in 10.0 mi Calm Calm - N/A   Clear
8:35 PM 32.0 °F 26.4 °F 28.8 °F 88% 30.12 in 10.0 mi NNW 5.8 mph - N/A   Clear
8:55 PM 32.0 °F 28.7 °F 28.4 °F 87% 30.12 in 10.0 mi North 3.5 mph - N/A   Clear
9:15 PM 30.2 °F - 28.2 °F 92% 30.13 in 10.0 mi Calm Calm - N/A   Clear
9:55 PM 35.2 °F - 29.5 °F 80% 30.13 in 10.0 mi Calm Calm - N/A   Clear
10:15 PM 28.9 °F 23.9 °F 27.9 °F 96% 30.14 in 10.0 mi WNW 4.6 mph - N/A   Clear
10:35 PM 28.9 °F 25.2 °F 28.0 °F 96% 30.14 in 10.0 mi NW 3.5 mph - N/A   Clear
10:55 PM 28.6 °F 24.8 °F 27.7 °F 96% 30.14 in 10.0 mi NNW 3.5 mph - N/A   Clear
11:15 PM 28.2 °F 24.4 °F 27.0 °F 95% 30.14 in 10.0 mi NW 3.5 mph - N/A   Clear
11:35 PM 29.5 °F - 27.7 °F 93% 30.15 in 10.0 mi Calm Calm - N/A   Clear
11:55 PM 27.9 °F 21.5 °F 27.1 °F 97% 30.16 in 10.0 mi West 5.8 mph - N/A   Clear